Shirley, NY

4:32 PM EST on January 23, 2017 (GMT -0500)
Brookhaven

Weather History for KHWV - March, 2013

Change the Weather History Date:

Tuesday, March 26, 2013

  Actual Average (KISP) Record (KISP)
Temperature  
Mean Temperature 42 °F -  
Max Temperature 52 °F 50 °F 64 °F (2000)
Min Temperature 33 °F 33 °F 24 °F (2014)
Degree Days  
Heating Degree Days 23    
Moisture  
Dew Point 27 °F    
Average Humidity 60    
Maximum Humidity 79    
Minimum Humidity 39    
Precipitation  
Precipitation 0.00 in - - ()
Sea Level Pressure  
Sea Level Pressure 29.72 in    
Wind  
Wind Speed 8 mph (NW)    
Max Wind Speed 16 mph    
Max Gust Speed 20 mph    
Visibility 10 miles    
Events      
Averages and records for this station are not official NWS values.
T = Trace of Precipitation, MM = Missing Value Source: NWS Daily Summary

Daily Weather History Graph

Daily Weather History Graph

Search for Another Location

Airport or City:

Trip Planner

Search our weather history database for the weather conditions in past years. The results will help you decide how hot, cold, wet, or windy it might be!

Date:

Astronomy

Mar. 26, 2013 Rise Set
Actual Time 6:44 AM EDT 7:10 PM EDT
Civil Twilight 6:17 AM EDT 7:37 PM EDT
Nautical Twilight 5:44 AM EDT 8:10 PM EDT
Astronomical Twilight 5:11 AM EDT 8:43 PM EDT
Moon 6:44 PM EDT (3/26) 5:59 AM EDT (3/26)
Length of Visible Light 13h 20m
Length of Day
12h 25m
Waxing Gibbous, 99% of the Moon is Illuminated
Mar 26
Waxing Gibbous
Mar 27
Full
Apr 3
Last Quarter
Apr 10
New
Apr 18
First Quarter

Hourly Weather History & Observations

Time (EDT) Temp. Windchill Dew Point Humidity Pressure Visibility Wind Dir Wind Speed Gust Speed Precip Events Conditions
12:56 AM 37.0 °F 29.8 °F 30.0 °F 76% 29.57 in 10.0 mi North 10.4 mph - 0.00 in   Overcast
1:56 AM 35.1 °F 31.0 °F 28.9 °F 78% 29.59 in 10.0 mi NNW 4.6 mph - N/A   Overcast
2:56 AM 35.1 °F 31.0 °F 28.9 °F 78% 29.60 in 10.0 mi NW 4.6 mph - N/A   Mostly Cloudy
3:56 AM 33.1 °F 27.7 °F 27.0 °F 78% 29.61 in 10.0 mi NW 5.8 mph - N/A   Clear
4:56 AM 34.0 °F 29.8 °F 28.0 °F 79% 29.63 in 10.0 mi WNW 4.6 mph - N/A   Overcast
5:56 AM 35.1 °F 31.0 °F 28.9 °F 78% 29.65 in 10.0 mi West 4.6 mph - N/A   Overcast
6:56 AM 35.1 °F 31.0 °F 28.9 °F 78% 29.68 in 10.0 mi WNW 4.6 mph - N/A   Overcast
7:56 AM 37.0 °F 31.6 °F 30.0 °F 76% 29.70 in 10.0 mi WNW 6.9 mph - N/A   Overcast
8:56 AM 39.9 °F 33.9 °F 30.9 °F 70% 29.72 in 10.0 mi NW 9.2 mph - N/A   Overcast
9:56 AM 43.0 °F 37.2 °F 30.9 °F 62% 29.73 in 10.0 mi NW 10.4 mph - N/A   Overcast
10:56 AM 46.0 °F 41.0 °F 28.0 °F 50% 29.73 in 10.0 mi NNW 10.4 mph - N/A   Overcast
11:56 AM 48.0 °F - 26.1 °F 42% 29.73 in 10.0 mi NW 13.8 mph - N/A   Overcast
12:56 PM 50.0 °F - 27.0 °F 41% 29.73 in 10.0 mi NNW 16.1 mph - N/A   Partly Cloudy
1:56 PM 51.1 °F - 27.0 °F 39% 29.73 in 10.0 mi WNW 10.4 mph - N/A   Mostly Cloudy
2:56 PM 48.0 °F - 25.0 °F 41% 29.73 in 10.0 mi NW 13.8 mph 19.6 mph N/A   Mostly Cloudy
3:56 PM 48.9 °F - 25.0 °F 39% 29.73 in 10.0 mi North 10.4 mph - N/A   Partly Cloudy
4:56 PM 48.0 °F - 26.1 °F 42% 29.75 in 10.0 mi NNW 12.7 mph 18.4 mph N/A   Overcast
5:56 PM 48.0 °F - 26.1 °F 42% 29.76 in 10.0 mi WNW 8.1 mph - 0.00 in   Mostly Cloudy
6:56 PM 46.9 °F - 24.1 °F 41% 29.78 in 10.0 mi NNW 9.2 mph 19.6 mph N/A   Overcast
7:56 PM 44.1 °F 42.5 °F 26.1 °F 49% 29.80 in 10.0 mi WNW 3.5 mph - N/A   Overcast
8:56 PM 39.0 °F - 25.0 °F 57% 29.82 in 10.0 mi Calm Calm - N/A   Clear
9:56 PM 35.1 °F - 24.1 °F 64% 29.84 in 10.0 mi Calm Calm - N/A   Clear
10:56 PM 36.0 °F 33.3 °F 26.1 °F 67% 29.85 in 10.0 mi WNW 3.5 mph - N/A   Mostly Cloudy
11:56 PM 35.1 °F 32.2 °F 25.0 °F 67% 29.85 in 10.0 mi NW 3.5 mph - N/A   Mostly Cloudy